FW6321 Weather Reports


time (UTC)temp
C
wind
direction
speed
KPH
gust
KPH
rain 1hr
cm
rain 24hr
cm
rain mn
cm
humidity
%
barometer
mb
20260510023227 10 318 9.7 17.7 0.00 0.00 0.00 91 1016.8
20260510022734 10 316 9.7 17.7 0.00 0.00 0.00 91 1016.8
20260510022313 10 330 9.7 16.1 0.00 0.00 0.00 90 1016.9
20260510021300 10 330 8.0 16.1 0.00 0.00 0.00 90 1016.9
20260510020304 10 14 8.0 14.5 0.00 0.00 0.00 90 1017.0
20260510015215 10 325 8.0 16.1 0.00 0.00 0.00 90 1017.0
20260510014720 10 330 9.7 16.1 0.00 0.00 0.00 91 1017.0
20260510014215 10 314 9.7 16.1 0.00 0.00 0.00 91 1017.1
20260510013718 10 325 8.0 16.1 0.00 0.00 0.00 91 1017.1
20260510013214 10 330 8.0 12.9 0.00 0.00 0.00 91 1017.0
20260510012716 10 311 8.0 14.5 0.00 0.00 0.00 91 1016.9
20260510012216 10 356 8.0 14.5 0.00 0.00 0.00 91 1016.9
20260510011717 10 310 8.0 12.9 0.00 0.00 0.00 90 1016.9
20260510011216 10 316 6.4 14.5 0.00 0.00 0.00 91 1016.9
20260510010711 10 330 6.4 14.5 0.00 0.00 0.00 90 1017.0
20260510010213 10 330 6.4 14.5 0.00 0.00 0.00 90 1017.0
20260510005756 10 356 8.0 12.9 0.00 0.00 0.00 90 1017.1
20260510004746 10 314 6.4 12.9 0.00 0.00 0.00 90 1017.2
20260510003712 10 342 6.4 12.9 0.00 0.00 0.00 90 1017.4
20260510003212 10 306 6.4 14.5 0.00 0.00 0.00 90 1017.3
20260510002716 11 11 6.4 14.5 0.00 0.00 0.00 90 1017.3
20260510002212 11 340 6.4 12.9 0.00 0.00 0.00 90 1017.4
20260510001713 11 325 4.8 8.0 0.00 0.00 0.00 90 1017.5
20260510001206 11 325 6.4 12.9 0.00 0.00 0.00 89 1017.6
20260510000706 11 335 6.4 14.5 0.00 0.00 0.00 89 1017.6
20260510000206 11 319 8.0 14.5 0.00 0.00 0.00 89 1017.5
20260509235746 11 287 8.0 14.5 0.00 0.00 0.00 89 1017.5
20260509234738 11 315 8.0 12.9 0.00 0.00 0.00 89 1017.6
20260509233706 11 320 6.4 12.9 0.00 0.00 0.00 88 1017.5
20260509233206 11 339 6.4 11.3 0.00 0.00 0.00 88 1017.5
20260509232705 11 300 6.4 11.3 0.00 0.00 0.00 88 1017.4
20260509232205 11 6 6.4 12.9 0.00 0.00 0.00 88 1017.5
20260509231704 11 335 6.4 12.9 0.00 0.00 0.00 88 1017.5
20260509231206 11 350 6.4 14.5 0.00 0.00 0.00 87 1017.6
20260509230707 11 312 8.0 16.1 0.00 0.00 0.00 87 1017.6
20260509230206 11 325 8.0 16.1 0.00 0.00 0.00 87 1017.5
20260509225706 11 325 8.0 16.1 0.00 0.00 0.00 86 1017.6
20260509225230 11 11 6.4 14.5 0.00 0.00 0.00 86 1017.6
20260509224205 11 0 6.4 12.9 0.00 0.00 0.00 85 1017.7
20260509223729 11 325 8.0 14.5 0.00 0.00 0.00 84 1017.7
20260509222702 12 356 6.4 14.5 0.00 0.00 0.00 83 1017.7
20260509222204 12 330 6.4 14.5 0.00 0.00 0.00 83 1017.6
20260509221704 12 352 8.0 14.5 0.00 0.00 0.00 83 1017.6
20260509221205 12 314 8.0 19.3 0.00 0.00 0.00 82 1017.6
20260509220705 12 325 8.0 19.3 0.00 0.00 0.00 82 1017.7
20260509220204 12 311 6.4 17.7 0.00 0.00 0.00 81 1017.6
20260509215702 12 325 8.0 16.1 0.00 0.00 0.00 81 1017.7
20260509215202 12 8 8.0 14.5 0.00 0.00 0.00 81 1017.6
20260509214702 12 349 8.0 14.5 0.00 0.00 0.00 81 1017.6
20260509214159 12 356 8.0 20.9 0.00 0.00 0.00 80 1017.7
20260509213658 12 26 8.0 20.9 0.00 0.00 0.00 80 1017.6
20260509213155 12 330 6.4 14.5 0.00 0.00 0.00 80 1017.6
20260509212651 12 349 6.4 14.5 0.00 0.00 0.00 79 1017.6
20260509212148 12 316 6.4 16.1 0.00 0.00 0.00 79 1017.7
20260509211649 12 325 8.0 17.7 0.00 0.00 0.00 78 1017.8
20260509211149 12 339 9.7 17.7 0.00 0.00 0.00 78 1017.7
20260509210650 12 343 8.0 16.1 0.00 0.00 0.00 77 1017.6
20260509210217 12 358 8.0 16.1 0.00 0.00 0.00 77 1017.7
20260509205150 13 346 8.0 14.5 0.00 0.00 0.00 76 1017.7
20260509204650 13 345 8.0 16.1 0.00 0.00 0.00 75 1017.6
20260509204147 13 348 8.0 17.7 0.00 0.00 0.00 75 1017.8
20260509203647 13 0 9.7 19.3 0.00 0.00 0.00 74 1017.6
20260509203149 13 309 9.7 19.3 0.00 0.00 0.00 74 1017.6
20260509202730 13 12 9.7 19.3 0.00 0.00 0.00 74 1017.5
20260509201718 13 8 8.0 16.1 0.00 0.00 0.00 73 1017.6
20260509200648 13 1 6.4 12.9 0.00 0.00 0.00 72 1017.6
20260509200147 13 335 6.4 14.5 0.00 0.00 0.00 72 1017.7
20260509195646 13 6 6.4 14.5 0.00 0.00 0.00 72 1017.7
20260509195146 13 345 8.0 14.5 0.00 0.00 0.00 72 1017.7
20260509194646 14 357 8.0 14.5 0.00 0.00 0.00 72 1017.6
20260509194145 14 343 8.0 17.7 0.00 0.00 0.00 71 1017.5
20260509193646 14 356 8.0 17.7 0.00 0.00 0.00 71 1017.5
20260509193146 14 354 6.4 12.9 0.00 0.00 0.00 71 1017.6
20260509192645 14 14 4.8 11.3 0.00 0.00 0.00 70 1017.5
20260509192145 15 11 6.4 14.5 0.00 0.00 0.00 70 1017.5
20260509191647 15 352 8.0 14.5 0.00 0.00 0.00 69 1017.5
20260509191145 15 18 8.0 14.5 0.00 0.00 0.00 69 1017.4
20260509190646 15 355 8.0 16.1 0.00 0.00 0.00 69 1017.5
20260509190145 15 345 9.7 17.7 0.00 0.00 0.00 68 1017.5
20260509185647 15 10 9.7 17.7 0.00 0.00 0.00 68 1017.4
20260509185147 15 15 8.0 16.1 0.00 0.00 0.00 68 1017.3
20260509184651 15 12 9.7 17.7 0.00 0.00 0.00 67 1017.3
20260509184151 15 23 8.0 17.7 0.00 0.00 0.00 66 1017.4
20260509183712 16 2 8.0 14.5 0.00 0.00 0.00 66 1017.2
20260509182647 16 343 6.4 16.1 0.00 0.00 0.00 65 1017.2
20260509182147 16 339 8.0 19.3 0.00 0.00 0.00 65 1017.2
20260509181647 16 330 9.7 20.9 0.00 0.00 0.00 64 1017.2
20260509181146 16 345 11.3 20.9 0.00 0.00 0.00 63 1017.1
20260509180646 16 356 11.3 22.5 0.00 0.00 0.00 63 1017.1
20260509180214 16 352 11.3 22.5 0.00 0.00 0.00 61 1017.2
20260509175145 16 350 12.9 20.9 0.00 0.00 0.00 61 1017.1
20260509174643 16 339 8.0 20.9 0.00 0.00 0.00 61 1017.1
20260509174212 17 31 8.0 16.1 0.00 0.00 0.00 62 1017.1
20260509173142 17 2 9.7 19.3 0.00 0.00 0.00 61 1017.3
20260509172644 17 325 9.7 22.5 0.00 0.00 0.00 60 1017.3
20260509172142 17 16 11.3 22.5 0.00 0.00 0.00 60 1017.3
20260509171641 17 11 12.9 24.1 0.00 0.00 0.00 59 1017.3
20260509171141 17 356 11.3 24.1 0.00 0.00 0.00 59 1017.2
20260509170642 17 320 8.0 20.9 0.00 0.00 0.00 60 1017.3
20260509170142 17 325 11.3 22.5 0.00 0.00 0.00 58 1017.2
20260509165640 17 7 11.3 22.5 0.00 0.00 0.00 56 1017.3
20260509165139 17 349 9.7 22.5 0.00 0.00 0.00 58 1017.3
20260509164640 17 349 9.7 19.3 0.00 0.00 0.00 57 1017.3
20260509164138 17 27 11.3 20.9 0.00 0.00 0.00 57 1017.2
20260509163637 17 320 9.7 20.9 0.00 0.00 0.00 57 1017.3
20260509163211 18 356 11.3 20.9 0.00 0.00 0.00 59 1017.3
20260509162137 17 21 12.9 20.9 0.00 0.00 0.00 57 1017.2
20260509161637 17 354 11.3 20.9 0.00 0.00 0.00 58 1017.2
20260509161140 17 318 11.3 17.7 0.00 0.00 0.00 56 1017.3
20260509160637 17 340 9.7 17.7 0.00 0.00 0.00 57 1017.2
20260509160138 17 358 8.0 16.1 0.00 0.00 0.00 58 1017.3
20260509155748 17 76 6.4 19.3 0.00 0.00 0.00 58 1017.2
20260509154136 18 62 3.2 11.3 0.00 0.00 0.00 55 1017.2
20260509153702 18 73 4.8 11.3 0.00 0.00 0.00 56 1017.2
20260509152718 18 33 8.0 17.7 0.00 0.00 0.00 57 1017.2
20260509151638 18 0 6.4 16.1 0.00 0.00 0.00 56 1017.3
20260509151140 18 8 6.4 16.1 0.00 0.00 0.00 57 1017.3
20260509150709 18 45 6.4 14.5 0.00 0.00 0.00 57 1017.5
20260509145640 18 5 4.8 16.1 0.00 0.00 0.00 55 1017.5
20260509145146 19 25 3.2 11.3 0.00 0.00 0.00 57 1017.4
20260509144640 18 48 4.8 11.3 0.00 0.00 0.00 54 1017.5
20260509144134 18 50 6.4 11.3 0.00 0.00 0.00 53 1017.5
20260509143711 18 57 8.0 20.9 0.00 0.00 0.00 58 1017.5
20260509142637 18 39 8.0 17.7 0.00 0.00 0.00 53 1017.5
20260509142146 18 48 8.0 17.7 0.00 0.00 0.00 59 1017.6
20260509141634 18 36 6.4 16.1 0.00 0.00 0.00 57 1017.6
20260509141134 18 2 6.4 16.1 0.00 0.00 0.00 60 1017.6
20260509140632 17 351 6.4 14.5 0.00 0.00 0.00 58 1017.8
20260509140134 18 354 8.0 14.5 0.00 0.00 0.00 56 1017.9
20260509135720 18 315 6.4 14.5 0.00 0.00 0.00 52 1017.8
20260509134635 18 27 9.7 17.7 0.00 0.00 0.00 56 1017.9
20260509134134 18 56 6.4 16.1 0.00 0.00 0.00 58 1017.9
20260509133634 18 339 8.0 19.3 0.00 0.00 0.00 58 1017.9
20260509133134 17 308 8.0 19.3 0.00 0.00 0.00 57 1018.0
20260509132709 17 339 8.0 19.3 0.00 0.00 0.00 60 1018.2
20260509131631 17 325 6.4 12.9 0.00 0.00 0.00 56 1018.3
20260509131131 17 13 4.8 12.9 0.00 0.00 0.00 58 1018.3
20260509130659 17 264 6.4 14.5 0.00 0.00 0.00 54 1018.3
20260509125630 18 330 4.8 9.7 0.00 0.00 0.00 56 1018.6
20260509125132 18 4 6.4 12.9 0.00 0.00 0.00 59 1018.6
20260509124631 18 23 6.4 14.5 0.00 0.00 0.00 57 1018.7
20260509124128 18 48 4.8 14.5 0.00 0.00 0.00 60 1018.7
20260509123627 18 82 4.8 12.9 0.00 0.00 0.00 57 1018.7
20260509123128 18 65 4.8 9.7 0.00 0.00 0.00 61 1018.8
20260509122622 18 63 6.4 11.3 0.00 0.00 0.00 60 1018.8
20260509122124 17 335 4.8 11.3 0.00 0.00 0.00 55 1018.8
20260509121624 17 3 4.8 11.3 0.00 0.00 0.00 61 1018.8
20260509121120 17 58 6.4 14.5 0.00 0.00 0.00 60 1018.9
20260509120730 18 354 8.0 16.1 0.00 0.00 0.00 62 1018.9
20260509115122 18 0 6.4 16.1 0.00 0.00 0.00 61 1019.1
20260509114622 18 74 4.8 14.5 0.00 0.00 0.00 59 1019.1
20260509114123 17 85 4.8 12.9 0.00 0.00 0.00 59 1019.2
20260509113619 17 66 6.4 12.9 0.00 0.00 0.00 61 1019.3
20260509113120 17 94 4.8 11.3 0.00 0.00 0.00 63 1019.3
20260509112622 17 35 6.4 14.5 0.00 0.00 0.00 66 1019.3
20260509112123 17 32 6.4 14.5 0.00 0.00 0.00 65 1019.4
20260509111618 17 67 6.4 12.9 0.00 0.00 0.00 64 1019.4
20260509111118 18 83 8.0 16.1 0.00 0.00 0.00 63 1019.4
20260509110619 18 320 6.4 16.1 0.00 0.00 0.00 62 1019.5
20260509110118 18 21 6.4 14.5 0.00 0.00 0.00 66 1019.4
20260509105619 17 295 8.0 14.5 0.00 0.00 0.00 63 1019.5
20260509105118 17 33 8.0 14.5 0.00 0.00 0.00 63 1019.5
20260509104617 17 75 9.7 14.5 0.00 0.00 0.00 67 1019.6
20260509104120 17 25 8.0 14.5 0.00 0.00 0.00 65 1019.6
20260509103649 17 29 8.0 14.5 0.00 0.00 0.00 65 1019.6
20260509102617 17 25 8.0 17.7 0.00 0.00 0.00 70 1019.7
20260509102117 17 28 8.0 17.7 0.00 0.00 0.00 68 1019.7
20260509101618 17 65 6.4 14.5 0.00 0.00 0.00 67 1019.7
20260509101118 17 72 4.8 16.1 0.00 0.00 0.00 69 1019.8
20260509100617 17 39 8.0 17.7 0.00 0.00 0.00 69 1019.8
20260509100115 17 29 6.4 17.7 0.00 0.00 0.00 68 1019.8
20260509095615 17 23 4.8 14.5 0.00 0.00 0.00 70 1019.7
20260509095116 17 102 4.8 9.7 0.00 0.00 0.00 69 1019.7
20260509094643 17 29 6.4 14.5 0.00 0.00 0.00 70 1019.7
20260509093618 16 79 6.4 12.9 0.00 0.00 0.00 69 1019.8
20260509093115 16 120 6.4 16.1 0.00 0.00 0.00 71 1019.9
20260509092613 16 58 6.4 16.1 0.00 0.00 0.00 69 1019.9
20260509092238 16 75 8.0 14.5 0.00 0.00 0.00 70 1019.9
20260509090610 16 86 4.8 14.5 0.00 0.00 0.00 70 1019.9
20260509090111 16 92 6.4 16.1 0.00 0.00 0.00 70 1019.9
20260509085610 16 88 8.0 16.1 0.00 0.00 0.00 72 1019.9
20260509085110 16 68 8.0 14.5 0.00 0.00 0.00 72 1019.9
20260509084611 16 88 8.0 16.1 0.00 0.00 0.00 72 1019.8
20260509084110 16 74 9.7 16.1 0.00 0.00 0.00 72 1019.9
20260509083614 16 65 9.7 14.5 0.00 0.00 0.00 72 1019.9
20260509083110 16 59 6.4 14.5 0.00 0.00 0.00 71 1019.9
20260509082610 16 77 4.8 14.5 0.00 0.00 0.00 72 1019.8
20260509082112 15 56 9.7 17.7 0.00 0.00 0.00 72 1019.9
20260509081610 15 80 12.9 17.7 0.00 0.00 0.00 73 1019.8
20260509081109 15 69 9.7 16.1 0.00 0.00 0.00 74 1019.8
20260509080645 15 71 9.7 16.1 0.00 0.00 0.00 75 1019.9
20260509075608 15 57 9.7 19.3 0.00 0.00 0.00 77 1019.9
20260509075112 15 46 8.0 14.5 0.00 0.00 0.00 78 1019.8
20260509074635 15 349 8.0 14.5 0.00 0.00 0.00 77 1019.8
20260509073610 15 27 6.4 14.5 0.00 0.00 0.00 80 1019.8
20260509073105 15 354 4.8 11.3 0.00 0.00 0.00 81 1019.8
20260509072606 14 19 4.8 11.3 0.00 0.00 0.00 81 1019.9
20260509072106 14 56 6.4 9.7 0.00 0.00 0.00 82 1019.9
20260509071636 13 43 4.8 11.3 0.00 0.00 0.00 83 1019.9
20260509070607 13 11 6.4 11.3 0.00 0.00 0.00 85 1019.9
20260509070105 13 74 4.8 8.0 0.00 0.00 0.00 86 1019.9
20260509065604 12 85 4.8 12.9 0.00 0.00 0.00 86 1019.9
20260509065105 12 50 4.8 12.9 0.00 0.00 0.00 86 1019.9
20260509064606 12 12 4.8 9.7 0.00 0.00 0.00 87 1019.9
20260509064104 12 4 4.8 9.7 0.00 0.00 0.00 87 1019.9
20260509063603 12 23 6.4 9.7 0.00 0.00 0.00 87 1019.9
20260509063107 12 42 6.4 12.9 0.00 0.00 0.00 87 1019.9
20260509062608 12 11 4.8 12.9 0.00 0.00 0.00 88 1019.9
20260509062107 11 10 4.8 9.7 0.00 0.00 0.00 89 1019.9
20260509061607 11 54 4.8 9.7 0.00 0.00 0.00 89 1019.9
20260509061135 11 82 3.2 8.0 0.00 0.00 0.00 90 1019.9
20260509060104 11 25 3.2 8.0 0.00 0.00 0.00 92 1020.0
20260509055604 11 18 3.2 8.0 0.00 0.00 0.00 92 1019.9
20260509055105 10 44 3.2 6.4 0.00 0.00 0.00 93 1019.9
20260509054602 10 65 3.2 6.4 0.00 0.00 0.00 94 1019.8
20260509054104 10 60 3.2 6.4 0.00 0.00 0.00 94 1019.8
20260509053603 10 28 3.2 6.4 0.00 0.00 0.00 94 1019.9
20260509053104 9 30 3.2 6.4 0.00 0.00 0.00 94 1019.8
20260509052634 9 7 4.8 6.4 0.00 0.00 0.00 94 1019.7
20260509051644 8 0 3.2 6.4 0.00 0.00 0.00 94 1019.7
20260509050630 8 45 3.2 8.0 0.00 0.00 0.00 93 1019.7
20260509045606 8 9 1.6 4.8 0.00 0.00 0.00 93 1019.7
20260509045103 8 9 1.6 4.8 0.00 0.00 0.00 93 1019.6
20260509044606 8 9 1.6 4.8 0.00 0.00 0.00 92 1019.6
20260509044059 8 9 3.2 4.8 0.00 0.00 0.00 92 1019.6
20260509043559 8 9 3.2 4.8 0.00 0.00 0.00 92 1019.6
20260509043126 8 9 3.2 6.4 0.00 0.00 0.00 92 1019.5
20260509042059 8 29 3.2 4.8 0.00 0.00 0.00 92 1019.6
20260509041602 8 29 3.2 4.8 0.00 0.00 0.00 92 1019.4
20260509041059 8 29 3.2 4.8 0.00 0.00 0.00 92 1019.5
20260509040556 8 33 1.6 4.8 0.00 0.00 0.00 91 1019.5
20260509040055 8 39 1.6 3.2 0.00 0.00 0.00 91 1019.5
20260509035554 8 39 1.6 4.8 0.00 0.00 0.00 91 1019.4
20260509035056 8 39 1.6 4.8 0.00 0.00 0.00 91 1019.4
20260509034632 8 35 3.2 4.8 0.00 0.00 0.00 91 1019.4
20260509033553 8 37 3.2 4.8 0.00 0.00 0.00 91 1019.4
20260509033051 8 48 3.2 4.8 0.00 0.00 0.00 90 1019.4
20260509032555 8 60 3.2 4.8 0.00 0.00 0.00 90 1019.5
20260509032051 9 60 3.2 6.4 0.00 0.00 0.00 90 1019.5
20260509031550 9 60 3.2 6.4 0.00 0.00 0.00 90 1019.5
20260509031057 9 48 3.2 6.4 0.00 0.00 0.00 91 1019.5
20260509030633 9 59 4.8 6.4 0.00 0.00 0.00 91 1019.6
20260509025558 9 51 6.4 9.7 0.00 0.00 0.00 91 1019.6
20260509025233 9 52 4.8 9.7 0.00 0.00 0.00 91 1019.6
20260509023548 8 68 4.8 6.4 0.00 0.00 0.00 91 1019.6